Longville, MN

12:50 PM CDT on August 31, 2016 (GMT -0500)
Longville Municipal

Weather History for KXVG - April, 2013

Change the Weather History Date:

Thursday, April 11, 2013

  Actual Average (KPWC) Record (KPWC)
Temperature  
Mean Temperature 30 °F -  
Max Temperature 33 °F 49 °F 71 °F (2006)
Min Temperature 26 °F 28 °F 12 °F (1997)
Degree Days  
Heating Degree Days 36    
Moisture  
Dew Point 21 °F    
Average Humidity 72    
Maximum Humidity 93    
Minimum Humidity 41    
Precipitation  
Precipitation 0.13 in - - ()
Sea Level Pressure  
Sea Level Pressure 29.89 in    
Wind  
Wind Speed 8 mph (ENE)    
Max Wind Speed 13 mph    
Max Gust Speed 25 mph    
Visibility 8 miles    
Events Snow    
Averages and records for this station are not official NWS values.
T = Trace of Precipitation, MM = Missing Value Source: NWS Daily Summary

Daily Weather History Graph

Daily Weather History Graph

Search for Another Location

Airport or City:

Trip Planner

Search our weather history database for the weather conditions in past years. The results will help you decide how hot, cold, wet, or windy it might be!

Date:

Astronomy

Apr. 11, 2013 Rise Set
Actual Time 6:36 AM CDT 8:00 PM CDT
Civil Twilight 6:04 AM CDT 8:32 PM CDT
Nautical Twilight 5:26 AM CDT 9:10 PM CDT
Astronomical Twilight 4:45 AM CDT 9:51 PM CDT
Moon 7:02 AM CDT (4/11) 9:43 PM CDT (4/11)
Length of Visible Light 14h 27m
Length of Day
13h 24m
New Moon, 2% of the Moon is Illuminated
Apr 11
New Moon
Apr 18
First Quarter
Apr 25
Full
May 2
Last Quarter
May 9
New

Hourly Weather History & Observations

Time (CDT) Temp. Windchill Dew Point Humidity Pressure Visibility Wind Dir Wind Speed Gust Speed Precip Events Conditions
12:16 AM 33.8 °F 28.6 °F 15.8 °F 48% 30.03 in 10.0 mi East 5.8 mph - N/A   Clear
12:36 AM 33.8 °F 29.6 °F 14.0 °F 44% 30.03 in 10.0 mi ENE 4.6 mph - N/A   Clear
12:56 AM 32.0 °F 24.8 °F 14.0 °F 48% 30.02 in 10.0 mi East 8.1 mph - N/A   Clear
1:16 AM 32.0 °F 26.4 °F 12.2 °F 44% 30.01 in 10.0 mi ENE 5.8 mph 16.1 mph N/A   Clear
1:36 AM 32.0 °F 24.8 °F 12.2 °F 44% 30.00 in 10.0 mi ENE 8.1 mph 18.4 mph N/A   Clear
1:56 AM 32.0 °F 24.8 °F 10.4 °F 41% 30.00 in 10.0 mi East 8.1 mph - N/A   Clear
2:16 AM 32.0 °F 26.4 °F 10.4 °F 41% 30.00 in 10.0 mi ENE 5.8 mph - N/A   Clear
2:36 AM 30.2 °F 23.4 °F 12.2 °F 47% 29.99 in 10.0 mi ENE 6.9 mph - N/A   Clear
2:56 AM 30.2 °F 23.4 °F 12.2 °F 47% 29.98 in 10.0 mi ENE 6.9 mph - N/A   Clear
3:16 AM 30.2 °F 21.9 °F 14.0 °F 51% 29.98 in 10.0 mi NE 9.2 mph - N/A   Mostly Cloudy
3:36 AM 30.2 °F 23.4 °F 14.0 °F 51% 29.98 in 10.0 mi ENE 6.9 mph 18.4 mph N/A   Mostly Cloudy
3:56 AM 30.2 °F 22.6 °F 15.8 °F 55% 29.97 in 10.0 mi ENE 8.1 mph - N/A   Scattered Clouds
4:16 AM 30.2 °F 23.4 °F 15.8 °F 55% 29.95 in 10.0 mi ENE 6.9 mph 23.0 mph N/A   Scattered Clouds
4:36 AM 30.2 °F 21.9 °F 15.8 °F 55% 29.94 in 10.0 mi ENE 9.2 mph 16.1 mph N/A   Clear
4:56 AM 30.2 °F 23.4 °F 15.8 °F 55% 29.95 in 10.0 mi ENE 6.9 mph - N/A   Scattered Clouds
5:15 AM 30.2 °F 22.6 °F 15.8 °F 55% 29.95 in 10.0 mi ENE 8.1 mph - N/A   Scattered Clouds
5:36 AM 30.2 °F 24.3 °F 15.8 °F 55% 29.95 in 10.0 mi ENE 5.8 mph 17.3 mph N/A   Clear
5:56 AM 30.2 °F 22.6 °F 15.8 °F 55% 29.92 in 10.0 mi ENE 8.1 mph 18.4 mph N/A   Clear
6:16 AM 30.2 °F 21.9 °F 17.6 °F 60% 29.91 in 10.0 mi ENE 9.2 mph 17.3 mph N/A   Clear
6:36 AM 30.2 °F 21.3 °F 17.6 °F 60% 29.91 in 10.0 mi ENE 10.4 mph 17.3 mph N/A   Scattered Clouds
6:55 AM 30.2 °F 24.3 °F 17.6 °F 60% 29.91 in 10.0 mi NE 5.8 mph - N/A   Scattered Clouds
7:16 AM 30.2 °F 21.9 °F 17.6 °F 60% 29.90 in 10.0 mi ENE 9.2 mph 23.0 mph N/A   Clear
7:36 AM 30.2 °F 21.9 °F 17.6 °F 60% 29.90 in 10.0 mi ENE 9.2 mph 18.4 mph N/A   Clear
7:56 AM 30.2 °F 21.9 °F 19.4 °F 64% 29.90 in 10.0 mi ENE 9.2 mph - N/A   Clear
8:16 AM 30.2 °F 22.6 °F 19.4 °F 64% 29.90 in 10.0 mi ENE 8.1 mph 18.4 mph N/A   Clear
8:35 AM 30.2 °F 23.4 °F 19.4 °F 64% 29.90 in 10.0 mi ENE 6.9 mph - N/A   Clear
8:56 AM 30.2 °F 21.3 °F 19.4 °F 64% 29.90 in 10.0 mi ENE 10.4 mph 25.3 mph N/A   Clear
9:16 AM 30.2 °F 21.9 °F 17.6 °F 60% 29.89 in 10.0 mi East 9.2 mph 21.9 mph N/A   Clear
9:36 AM 30.2 °F 21.9 °F 19.4 °F 64% 29.89 in 10.0 mi ENE 9.2 mph 19.6 mph N/A   Clear
9:55 AM 30.2 °F 20.8 °F 17.6 °F 60% 29.88 in 10.0 mi ENE 11.5 mph 16.1 mph N/A   Clear
10:16 AM 30.2 °F 21.3 °F 17.6 °F 60% 29.86 in 10.0 mi ENE 10.4 mph 23.0 mph N/A   Clear
10:36 AM 30.2 °F 21.3 °F 19.4 °F 64% 29.87 in 10.0 mi East 10.4 mph 18.4 mph N/A   Clear
10:56 AM 26.6 °F 17.5 °F 24.8 °F 93% 29.87 in 0.2 mi ENE 9.2 mph 17.3 mph N/A Snow Snow
11:16 AM 26.6 °F 16.8 °F 24.8 °F 93% 29.88 in 0.5 mi ENE 10.4 mph 16.1 mph 0.01 in Snow Snow
11:36 AM 26.6 °F 16.8 °F 24.8 °F 93% 29.88 in 0.2 mi ENE 10.4 mph 17.3 mph 0.04 in Snow Heavy Snow
12:16 PM 28.4 °F 21.2 °F 26.6 °F 93% 29.88 in 0.2 mi ENE 6.9 mph - 0.05 in Snow Snow
12:36 PM 28.4 °F 21.2 °F 26.6 °F 93% 29.88 in 0.8 mi ENE 6.9 mph 17.3 mph 0.07 in   Overcast
12:56 PM 28.4 °F 20.4 °F 24.8 °F 86% 29.87 in 1.0 mi ENE 8.1 mph - N/A Snow Light Snow
1:16 PM 28.4 °F 19.7 °F 24.8 °F 86% 29.86 in 2.5 mi NE 9.2 mph 19.6 mph 0.01 in Snow Light Snow
1:36 PM 28.4 °F 20.4 °F 24.8 °F 86% 29.86 in 3.0 mi ENE 8.1 mph 16.1 mph 0.02 in Snow Light Snow
1:55 PM 30.2 °F 22.6 °F 24.8 °F 80% 29.85 in 3.0 mi ENE 8.1 mph 19.6 mph 0.02 in Snow Light Snow
2:16 PM 30.2 °F 21.9 °F 24.8 °F 80% 29.85 in 7.0 mi ENE 9.2 mph 17.3 mph N/A   Overcast
2:36 PM 30.2 °F 23.4 °F 24.8 °F 80% 29.85 in 10.0 mi ENE 6.9 mph 20.7 mph N/A   Overcast
2:56 PM 30.2 °F 20.2 °F 24.8 °F 80% 29.84 in 7.0 mi ENE 12.7 mph 20.7 mph N/A   Overcast
3:16 PM 30.2 °F 21.9 °F 24.8 °F 80% 29.83 in 10.0 mi ENE 9.2 mph - N/A   Overcast
3:36 PM 30.2 °F 22.6 °F 23.0 °F 75% 29.83 in 10.0 mi ENE 8.1 mph 25.3 mph N/A   Overcast
3:56 PM 30.2 °F 20.2 °F 23.0 °F 75% 29.83 in 10.0 mi ENE 12.7 mph 19.6 mph N/A   Overcast
4:16 PM 30.2 °F 21.3 °F 23.0 °F 75% 29.82 in 10.0 mi NE 10.4 mph 23.0 mph N/A   Overcast
4:36 PM 30.2 °F 20.8 °F 21.2 °F 69% 29.82 in 10.0 mi ENE 11.5 mph 18.4 mph N/A   Overcast
4:55 PM 30.2 °F 23.4 °F 21.2 °F 69% 29.83 in 10.0 mi ENE 6.9 mph 23.0 mph N/A   Overcast
5:15 PM 30.2 °F 22.6 °F 21.2 °F 69% 29.83 in 10.0 mi ENE 8.1 mph - N/A   Overcast
5:35 PM 30.2 °F 21.3 °F 21.2 °F 69% 29.83 in 10.0 mi ENE 10.4 mph 16.1 mph N/A   Overcast
5:56 PM 28.4 °F 20.4 °F 23.0 °F 80% 29.84 in 7.0 mi ENE 8.1 mph 16.1 mph N/A   Overcast
6:15 PM 28.4 °F 20.4 °F 24.8 °F 86% 29.84 in 3.0 mi ENE 8.1 mph - N/A   Overcast
6:35 PM 28.4 °F 22.2 °F 26.6 °F 93% 29.84 in 3.0 mi NE 5.8 mph - N/A   Overcast
6:55 PM 28.4 °F 19.7 °F 26.6 °F 93% 29.84 in 3.0 mi NE 9.2 mph - N/A   Overcast
7:15 PM 28.4 °F 22.2 °F 26.6 °F 93% 29.83 in 3.0 mi NE 5.8 mph - N/A   Overcast
7:35 PM 28.4 °F 23.3 °F 26.6 °F 93% 29.83 in 3.0 mi ENE 4.6 mph - N/A   Overcast
7:55 PM 28.4 °F 22.2 °F 26.6 °F 93% 29.83 in 5.0 mi ENE 5.8 mph - N/A   Overcast
8:16 PM 28.4 °F 22.2 °F 26.6 °F 93% 29.82 in 5.0 mi ENE 5.8 mph 16.1 mph N/A   Overcast
8:36 PM 28.4 °F 21.2 °F 26.6 °F 93% 29.82 in 5.0 mi ENE 6.9 mph - N/A   Overcast
8:55 PM 28.4 °F 23.3 °F 26.6 °F 93% 29.82 in 7.0 mi NE 4.6 mph - N/A   Overcast
9:15 PM 26.6 °F 19.1 °F 24.8 °F 93% 29.84 in 10.0 mi ENE 6.9 mph - N/A   Overcast
9:36 PM 26.6 °F 21.2 °F 24.8 °F 93% 29.84 in 4.0 mi NE 4.6 mph - N/A   Overcast
9:56 PM 26.6 °F 20.0 °F 24.8 °F 93% 29.85 in 5.0 mi East 5.8 mph - N/A   Overcast
10:15 PM 26.6 °F 18.2 °F 24.8 °F 93% 29.84 in 7.0 mi ENE 8.1 mph - N/A   Overcast
10:36 PM 26.6 °F 20.0 °F 24.8 °F 93% 29.84 in 7.0 mi ENE 5.8 mph - N/A   Overcast
10:56 PM 26.6 °F 18.2 °F 24.8 °F 93% 29.84 in 5.0 mi ENE 8.1 mph - N/A   Overcast
11:16 PM 26.6 °F 19.1 °F 24.8 °F 93% 29.83 in 5.0 mi ENE 6.9 mph - N/A   Overcast
11:35 PM 26.6 °F 21.2 °F 24.8 °F 93% 29.82 in 5.0 mi NE 4.6 mph - N/A   Overcast
11:55 PM 26.6 °F 22.6 °F 24.8 °F 93% 29.82 in 5.0 mi NE 3.5 mph - N/A   Overcast